Terug naar catalogus

Sitro-AIS-65

ActiefCommunicatieSSO
NORAD 67266·PAYLOAD·🇷🇺 Russia

Gelanceerd Dec 28, 2025 vanaf Vostochny Cosmodrome

Loading…

Volgende Passages (komende 24 uur)

TLE

VersSource: Space-Track

Epoch: Sep 13, 2026, 22:39 UTC

1 67266U 25313U   26256.94396789  .00007870  00000-0  31941-3 0  9990
2 67266  97.3889 330.4718 0014997  55.2477 305.0170 15.24769867 39473

Volg Sitro-AIS-65 in realtime met AllMySat

Download on the App Store